Location: *
(6.4833°S, 169.1333°E)
Time: 00:31:14
(UTC+00:00)

Daily predictions for brighter satellites

Satellite Brightness Start Highest point End
(mag) Time Altitude Azimuth Time Altitude Azimuth Time Altitude Azimuth
BLOCK DM-SL R/B 4.0 06:59:33 10° WNW 07:03:01 48° N 07:17:36 10° E
Feng Yun 1-1 Rocket 4.2 07:22:01 10° SSE 07:27:25 70° ENE 07:32:45 10° N
ASTRO E2 3.1 07:23:30 10° WSW 07:27:26 57° NNW 07:31:19 10° NE
ATLAS 3B CENTAUR R/B 2.0 07:22:54 10° WSW 07:29:54 64° NNW 07:33:15 10° NE
DMSP B5D2-2 4.4 07:25:43 10° NNE 07:30:44 47° ESE 07:35:46 10° S
IRS-1C Rocket 4.2 07:29:23 10° SSE 07:34:34 58° ENE 07:39:43 10° N
GPS 2-15 Rocket1 4.1 07:31:01 10° NW 07:35:02 29° NNE 07:39:03 10° E
OAO 3 Rocket 4.0 07:30:37 10° SW 07:35:19 42° SE 07:39:59 10° ENE
Ariane 44P Rocket 3.7 07:35:22 10° NW 07:37:35 23° NNE 07:42:20 10° ENE
Meteor 1-11 4.3 07:38:44 10° S 07:44:33 81° E 07:50:18 10° N
Cosmos 1943 3.2 07:42:07 10° NNW 07:47:45 88° E 07:53:22 10° SSE
Cosmos 44 Rocket 3.6 07:44:25 10° S 07:48:50 44° ESE 07:52:54 12° NE
Ariane H10 1.4 07:48:20 10° WNW 07:50:15 23° NNW 07:50:53 19° NNE
Cosmos 1346 Rocket 2.7 07:47:00 10° S 07:50:55 65° E 07:54:48 10° NNE
Fermi 3.7 07:47:26 10° WSW 07:51:30 75° SSE 07:54:29 17° ENE
USA 276 3.2 07:48:43 10° SSW 07:51:35 29° SE 07:53:17 18° E
CZ-2C R/B 3.3 07:46:08 10° N 07:51:40 63° WNW 07:57:13 10° SSW
CZ-2C R/B 3.3 07:48:30 10° S 07:53:19 70° WSW 07:58:20 10° NNW
H-2A R/B (2) 1.0 07:53:36 10° WNW 07:56:47 82° SSW 08:00:04 10° ESE
BREEZE-M DEB (TANK) 3.7 07:55:44 10° S 07:57:42 16° SE 07:58:21 15° ESE
H-2A R/B 1.9 07:53:43 10° SSE 07:58:35 64° ENE 08:03:25 10° N
Cosmos 2058 Rocket 4.1 07:55:04 10° NNW 07:59:25 50° W 08:03:49 10° S
Cosmos 2278 Rocket 3.0 07:54:20 10° SSW 07:59:49 52° WNW 08:05:18 10° N
SWARM A 4.2 07:56:55 10° S 08:00:11 57° E 08:03:27 10° N
CZ-3A R/B 3.6 07:57:33 10° SW 08:04:36 63° SSE 08:14:00 19° ENE
deb Olympus 4.4 07:42:45 10° W 08:05:29 81° N 08:08:28 21° E
CZ-4 R/B 2.0 08:01:58 10° S 08:06:08 62° WSW 08:10:15 10° NNW
Delta 128 3.5 08:05:45 10° WNW 08:10:14 79° NNE 08:14:11 15° ESE
Delta 2 Rocket 3.2 08:07:20 10° WSW 08:10:43 59° NW 08:12:23 28° NNE
Cosmos 1455 2.6 08:07:42 10° NNW 08:11:30 64° W 08:15:21 10° S
Cosmos 1943 Rocket 3.6 08:08:20 10° SSE 08:11:52 17° ESE 08:12:11 17° ESE
NATO 3D Rocket 3.3 08:07:37 10° WSW 08:12:21 85° SSE 08:15:18 27° ENE
Okean-O 3.0 08:08:30 10° S 08:12:54 65° WSW 08:17:17 10° NNW
Ariane 3 Deb 4.2 07:46:20 10° WNW 08:13:12 60° N 08:16:28 26° ENE
Ariane 42L Rocket 1.2 08:11:50 10° W 08:13:47 79° N 08:14:47 39° E
CSL-04 Rocket 3.7 08:09:00 10° SSE 08:14:10 54° ENE 08:19:21 10° N
Cosmos 2298 Rocket 3.9 08:11:40 10° S 08:16:58 78° ESE 08:21:07 17° NNE
ARIANE 5 R/B 1.5 08:14:50 10° W 08:17:43 81° N 08:20:49 24° E
ARIANE DEB (SYLDA) 2.1 08:12:59 10° W 08:18:55 89° N 08:20:26 33° E
ATLAS 3B R/B 3.6 08:23:20 10° NW 08:30:30 55° WSW 08:37:48 10° S
Cosmos 2297 3.8 08:25:05 10° S 08:30:34 54° ESE 08:32:21 38° NE
Meteor 2-14 Rocket 4.3 08:32:20 10° S 08:38:23 71° E 08:41:28 30° NNE
Cosmos 158 Rocket 4.1 08:37:32 39° NNE 08:39:06 53° ENE 08:44:17 10° SSE
Delta 2 Rocket 4.4 08:33:06 10° WNW 08:40:20 80° NNE 08:46:10 23° ESE
Meteor 2-21 Rocket 4.4 08:35:55 10° S 08:41:51 56° E 08:43:16 46° NE
Cosmos 1825 4.3 08:38:52 10° SSE 08:39:50 16° SSE 08:39:50 16° SSE
Cosmos 1125 Rocket 3.4 08:38:03 10° SSW 08:43:16 87° W 08:45:04 42° N
ARIANE 5 R/B 4.4 00:23:02 10° W 08:43:17 67° NNW 08:47:42 37° ENE
BLOCK DM-SL R/B 4.1 08:10:00 10° W 08:47:07 60° N 08:49:08 44° NE
USA 186 4.4 08:45:45 10° S 08:46:07 13° S 08:46:07 13° S
Cosmos 2266 Rocket 4.1 08:42:41 10° S 08:49:08 80° W 08:53:32 21° N
Cosmos 1655 Rocket 4.5 08:43:23 10° SSW 08:49:37 60° W 08:55:42 10° N
ARGOS 4.2 08:48:26 10° S 08:53:32 45° WSW 08:58:36 10° NNW
Cosmos 1408 3.7 08:52:58 10° SSW 08:55:32 41° SSW 08:55:32 41° SSW
Aureole 3 Rocket 4.5 09:02:23 20° NW 09:05:06 44° W 09:10:43 10° S
Ariane H10+ 4.3 09:14:59 10° NW 09:15:19 11° NW 09:15:19 11° NW
Cosmos 1417 Rocket 4.5 09:20:19 82° W 09:20:21 82° W 09:26:43 10° S
Cosmos 1553 Rocket 4.4 09:23:18 47° NW 09:24:55 61° W 09:31:03 10° S
Lacrosse 5 rocket 3.7 09:27:49 10° SSW 09:29:29 22° SSW 09:29:29 22° SSW
Cosmos 2369 Rocket 3.6 09:33:48 10° SSW 09:36:42 31° S 09:36:42 31° S
H-2A R/B 3.3 09:29:01 10° WSW 09:49:45 61° SSW 09:49:45 61° SSW
Cosmos 1943 Rocket 4.0 09:50:35 10° SW 09:53:46 26° WSW 09:53:46 26° WSW
CZ-3A R/B 4.1 09:57:47 10° WSW 10:07:24 63° NNW 10:07:24 63° NNW
